BREEZE-KM DEB, 41720

Orbit data source: Space-Track

BREEZE-KM DEB, 41720 is space debris in LEO originally from a launch on Tue, 31 Mar 2015 UTC launched from the Plesetsk Missile And Space Complex (PKMTR). Debris objects in space refer to the collection of defunct objects orbiting the Earth. Examples of debris include non-operational satellites, rocket bodies, and fragments generated from explosions, collisions, or faulty payload assembly.

Loading next visibility...
Identifier
41720, 2015-020H
Orbit
LEO
Last TLE update
14 hours ago
Origin
Manufacturer
Khrunichev
Mission
Spacecraft
Bus & Motor
Unknown
Mass
Unknown
Launch date (UTC)
2015-03-31 (10 years ago)
Launch vehicle
Unknown
Launch site
Plesetsk Missile And Space Complex (PKMTR)
Object type
Payload
Rocket body
Debris
Shape & HBR
Unknown
Radar Cross Section
Small (<0.1 m²)

Expand to show TLE details & history

TLE from 14 hours ago
0 BREEZE-KM DEB
1 41720U 15020H   25181.83375311  .00000038  00000-0  90704-4 0  9995
2 41720  82.4874  33.0980 0229812 358.0395   1.9788 12.90986244473393
Epoch: 2025-06-30T20:00Z
TLE epoch observation values (Epoch: 2025-06-30T20:00:36.268Z)
Latitude
-0.00003°
Longitude
173.809°
Altitude
1,124.063 km
Speed
7.374 km/s
True Right ascension
02h 12m 23s
True Declination
0° 00' 00"
Sunlit
Object was in daylight at epoch
Visualization orbit readout
Latitude
79.39504°
Longitude
-51.0682°
Altitude
1,340.272 km
Speed
7.181 km/s
Apparent Right ascension
09h 36m 44s
Apparent Declination
29° 32' 32"
Sunlit
Object is in daylight
Visualization observer readout
Local Sidereal Time
21:09:32
Azimuth
353.695° N
Elevation
-20.255°
Doppler factor
1
Orbital elements
Apogee altitude
1,471.229 km
Perigee altitude
1,118.558 km
Semi-major axis
7,673.031 km
Eccentricity
0.02298
Inclination
82.4874°
RAAN
33.098°
Arg. of periapsis
358.0395°
True anomaly
Unknown
Mean anomaly
1.9788°
Eccentric anomaly
Unknown
Mean motion
3.22918 °/min
Orbital period
111.48 mins
BSTAR
0.000090704
Loading maneuver chart data...
Loading SW <> Apogee altitude chart data...
Loading historical data...
Loading historical data...
Loading historical data...
Loading historical data...
Loading historical data...
Loading historical data...
Loading historical data...

BREEZE-KM DEB Visibility forecast

Observer location: undefined°, undefined°

Span
Click to sort rows by Start time (UTC) header in descending order
Start Az.
Max El. time (UTC)
Max El. Az.
Max El.
End time (UTC)
End Az.
12 mins2025-07-01 14:43:14.445Z179.793° S2025-07-01 14:48:14.445Z124.381° SE44.474°2025-07-01 14:55:14.445Z10.138° NNE
7 mins2025-07-01 16:39:14.445Z270.377° WNW2025-07-01 16:42:14.445Z299.175° NW16.314°2025-07-01 16:46:14.445Z333.438° NNW
12 mins2025-07-02 00:31:14.445Z23.837° NE2025-07-02 00:36:14.445Z70.169° E25.042°2025-07-02 00:43:14.445Z125.248° SE
15 mins2025-07-02 02:22:14.445Z344.06° N2025-07-02 02:29:14.445Z264.235° W41.929°2025-07-02 02:37:14.445Z189.791° SSW
|